Content
SEND FEEDBACK

Daily
Averages
Monthly
Summary
United States of America

EDENTON, NORTH CAROLINA


Home > North America > United States > North Carolina
Elevation: 19 feet     Latitude: 36 01N     Longitude: 076 33W

WEATHER
 
SELECT A DAY
Number of Records: 393,937;   Date Range: 3/17/98 - 8/12/14
 
SHARE

PRINT THIS DATA

[ ← Previous Day ]
WEATHER ALMANAC - JANUARY 3, 2013
[ Next Day → ]
[ °C ]   °F
Weather ElementAverageHighLow
Temperature37.6 °F42.1 °F (2:35 pm)30 °F (11:55 pm)
Dewpoint31.5 °F36.1 °F (12:35 am)28.4 °F (10:35 am)
Humidity79.3 %97 % (11:55 pm)62 % (3:15 pm)
Barometer30.21 in30.25 in (9:55 am)30.16 in (1:55 pm)

Weather ElementAverage
Weather ElementTotal
Precipitation---
Heating Degree Days29 (Base 65)
Averaged from 70 records on January 3, 2013
WEATHER CONDITIONS BREAKOUT
WIND DIRECTION BREAKOUT
WEATHER BY HOUR - JANUARY 3, 2013
[ °C ]   °F
Local TimeTemperatureDewpointHumidityBarometerVisibilityWind DirectionWind SpeedGust SpeedPrecipitationEventsConditions
12:35 AM37.8 °F36.1 °F94 %30.21 in10.0 miCalmClear
12:55 AM37.4 °F35.6 °F93 %30.20 in10.0 miCalmClear
1:15 AM37.4 °F35.6 °F93 %30.20 in10.0 miCalmClear
1:35 AM37.4 °F35.6 °F93 %30.20 in10.0 miCalmClear
2:15 AM37.4 °F35.6 °F93 %30.20 in10.0 miCalmClear
2:35 AM37.4 °F35.8 °F94 %30.19 in10.0 miCalmScattered Clouds
2:55 AM37.8 °F34.7 °F89 %30.20 in10.0 miCalmScattered Clouds
3:15 AM37.8 °F34.0 °F86 %30.20 in10.0 miCalmClear
3:35 AM37.8 °F34.0 °F86 %30.20 in10.0 miCalmClear
3:55 AM37.6 °F33.6 °F86 %30.20 in10.0 miCalmClear
4:15 AM37.4 °F32.9 °F84 %30.19 in10.0 miCalmClear
4:35 AM37.4 °F32.9 °F84 %30.19 in10.0 miCalmClear
4:55 AM37.4 °F32.5 °F83 %30.19 in10.0 miCalmClear
5:15 AM37.6 °F32.0 °F80 %30.19 in10.0 miCalmScattered Clouds
5:35 AM37.4 °F31.8 °F80 %30.19 in10.0 miCalmScattered Clouds
5:55 AM37.4 °F31.6 °F80 %30.20 in10.0 miCalmMostly Cloudy
6:15 AM37.6 °F31.1 °F77 %30.22 in10.0 miCalmOvercast
6:35 AM37.4 °F31.3 °F79 %30.20 in10.0 miCalmOvercast
6:55 AM37.4 °F31.1 °F78 %30.20 in10.0 miCalmOvercast
7:15 AM37.4 °F31.3 °F79 %30.21 in10.0 miCalmOvercast
7:35 AM37.2 °F31.3 °F79 %30.21 in10.0 miCalmOvercast
7:55 AM37.4 °F31.1 °F78 %30.23 in10.0 miCalmOvercast
8:15 AM37.4 °F31.6 °F80 %30.23 in10.0 miCalmOvercast
8:35 AM37.4 °F31.1 °F78 %30.22 in10.0 miCalmOvercast
8:55 AM37.6 °F30.0 °F74 %30.23 in10.0 miCalmOvercast
9:15 AM37.8 °F30.4 °F75 %30.23 in10.0 miCalmOvercast
9:35 AM37.8 °F29.7 °F73 %30.23 in10.0 miCalmOvercast
9:55 AM37.9 °F29.3 °F71 %30.25 in10.0 miCalmOvercast
10:15 AM38.3 °F29.7 °F71 %30.25 in10.0 miCalmOvercast
10:35 AM38.3 °F28.4 °F68 %30.24 in10.0 miCalmOvercast
10:55 AM38.7 °F29.1 °F69 %30.25 in10.0 miCalmOvercast
11:15 AM38.8 °F29.1 °F68 %30.24 in10.0 miCalmOvercast
11:35 AM39.2 °F29.3 °F68 %30.23 in10.0 miCalmOvercast
11:55 AM39.4 °F29.7 °F68 %30.21 in10.0 miCalmOvercast
12:15 PM39.7 °F30.6 °F70 %30.20 in10.0 miCalmOvercast
12:35 PM40.1 °F30.0 °F67 %30.19 in10.0 miCalmOvercast
12:55 PM40.5 °F30.6 °F68 %30.18 in10.0 miCalmOvercast
1:15 PM40.5 °F29.7 °F65 %30.18 in10.0 miCalmOvercast
1:35 PM41.2 °F31.1 °F67 %30.18 in10.0 miCalmOvercast
1:55 PM41.0 °F30.2 °F65 %30.16 in10.0 miCalmMostly Cloudy
2:15 PM41.4 °F30.2 °F65 %30.16 in10.0 miCalmMostly Cloudy
2:35 PM42.1 °F31.1 °F65 %30.18 in10.0 miCalmScattered Clouds
2:55 PM41.9 °F30.4 °F64 %30.18 in10.0 miCalmClear
3:15 PM41.5 °F29.3 °F62 %30.18 in10.0 miCalmClear
3:35 PM41.4 °F30.0 °F64 %30.18 in10.0 miCalmClear
3:55 PM41.2 °F30.9 °F67 %30.18 in10.0 miCalmClear
4:15 PM40.6 °F29.3 °F64 %30.20 in10.0 miCalmClear
4:35 PM40.3 °F30.0 °F67 %30.20 in10.0 miCalmClear
4:55 PM40.1 °F30.4 °F68 %30.22 in10.0 miCalmMostly Cloudy
5:15 PM40.1 °F30.7 °F69 %30.21 in10.0 miCalmOvercast
5:35 PM40.1 °F32.0 °F73 %30.21 in10.0 miCalmOvercast
5:55 PM40.3 °F32.2 °F73 %30.21 in10.0 miCalmOvercast
6:15 PM39.9 °F32.0 °F73 %30.22 in10.0 miCalmOvercast
6:35 PM38.7 °F33.1 °F80 %30.23 in10.0 miCalmOvercast
6:55 PM38.8 °F33.8 °F82 %30.23 in10.0 miCalmOvercast
7:15 PM38.7 °F34.0 °F83 %30.23 in10.0 miCalmMostly Cloudy
7:35 PM37.4 °F32.9 °F84 %30.23 in10.0 miCalmClear
7:55 PM36.0 °F32.5 °F87 %30.23 in10.0 miCalmClear
8:15 PM36.0 °F33.4 °F91 %30.24 in10.0 miCalmClear
8:35 PM34.7 °F32.0 °F90 %30.24 in10.0 miCalmClear
8:55 PM33.6 °F31.3 °F91 %30.25 in10.0 miCalmClear
9:15 PM33.1 °F31.3 °F93 %30.25 in10.0 miCalmClear
9:35 PM32.4 °F30.9 °F94 %30.24 in10.0 miCalmClear
9:55 PM32.0 °F30.4 °F94 %30.25 in10.0 miCalmClear
10:15 PM31.1 °F29.8 °F95 %30.25 in10.0 miCalmClear
10:35 PM30.9 °F29.7 °F95 %30.25 in10.0 miCalmClear
10:55 PM31.1 °F30.2 °F96 %30.25 in10.0 miCalmClear
11:15 PM30.2 °F29.3 °F96 %30.25 in10.0 miCalmClear
11:35 PM30.2 °F29.3 °F96 %30.24 in7.0 miCalmClear
11:55 PM30.0 °F29.3 °F97 %30.24 in7.0 miCalmClear
Hourly data recorded from KEDE, located miles away from Edenton, North Carolina







STORIES FROM OUR PARTNERS